TRA88G EHRD-GMTT

Flight info

Callsign TRA88G
Flight time N/A
Altitude 35000
Route WOODY N872 MEDIL DCT KOVIN DCT DUCRA UM728 RESMI UN857 DISAK DCT ARKIP DCT ARNAV DCT LMG DCT UVELI DCT OSMOB DCT ARVID DCT PPN DCT NOLSA DCT ALEPO DCT VASUM DCT BANEV DCT BAN DCT GOTOR DCT KAMPO DCT MONTO DCT MOLIN DCT VJF N10 LINTO DCT NOLRO
Aircraft B738/M-SDE2E3FGHIJ1P2RWXY/LB1

Departure

Time 2026-04-29 15:54
Airport Rotterdam The Hague Airport (EHRD)

Arrival

Time N/A
Airport Tangier Ibn Battuta Airport (GMTT)
Time Latitude Longitude Altitude Speed Heading
2026-04-29 15:10 51.94941 4.43585 1 ft 0 kts 326°
2026-04-29 15:31 51.94941 4.43586 0 ft 0 kts 324°
2026-04-29 15:48 51.94942 4.43585 0 ft 1 kts 323°
2026-04-29 15:48 51.94986 4.43582 0 ft 11 kts 43°
2026-04-29 15:49 51.95028 4.43682 0 ft 10 kts 50°
2026-04-29 15:49 51.95087 4.43675 0 ft 9 kts 327°
2026-04-29 15:49 51.95149 4.43611 0 ft 14 kts 327°
2026-04-29 15:49 51.95220 4.43537 0 ft 10 kts 327°
2026-04-29 15:50 51.95267 4.43467 0 ft 9 kts 283°
2026-04-29 15:50 51.95234 4.43378 0 ft 9 kts 237°
2026-04-29 15:50 51.95197 4.43285 0 ft 10 kts 237°
2026-04-29 15:50 51.95158 4.43186 0 ft 10 kts 239°
2026-04-29 15:51 51.95128 4.43084 1 ft 10 kts 245°
2026-04-29 15:51 51.95116 4.43043 1 ft 0 kts 246°
2026-04-29 15:52 51.95111 4.43023 0 ft 6 kts 246°
2026-04-29 15:52 51.95136 4.42920 0 ft 16 kts 312°
2026-04-29 15:52 51.95223 4.42877 3 ft 12 kts 37°
2026-04-29 15:52 51.95258 4.42943 1 ft 0 kts 57°
2026-04-29 15:53 51.95259 4.42945 1 ft 1 kts 57°
2026-04-29 15:53 51.95320 4.43106 1 ft 50 kts 57°
2026-04-29 15:53 51.95657 4.43948 -1 ft 123 kts 56°
2026-04-29 15:53 51.96211 4.45346 209 ft 165 kts 60°
2026-04-29 15:54 51.96827 4.46955 1019 ft 173 kts 62°
2026-04-29 15:54 51.97423 4.48646 1873 ft 183 kts 63°
2026-04-29 15:54 51.98077 4.50563 2286 ft 197 kts 64°
2026-04-29 15:54 51.98745 4.52560 2868 ft 204 kts 64°
2026-04-29 15:55 51.99407 4.54588 3603 ft 206 kts 65°
2026-04-29 15:55 51.99822 4.56808 4344 ft 205 kts 92°
2026-04-29 15:55 51.99586 4.59143 4675 ft 227 kts 106°
2026-04-29 15:55 51.99027 4.61648 5202 ft 240 kts 111°
2026-04-29 15:56 51.98024 4.63810 5888 ft 251 kts 143°
2026-04-29 15:56 51.96455 4.65136 6665 ft 256 kts 149°
2026-04-29 15:56 51.94772 4.66322 7313 ft 268 kts 161°
2026-04-29 15:56 51.92899 4.66347 8032 ft 283 kts 188°
2026-04-29 15:57 51.91102 4.64889 8712 ft 299 kts 219°
2026-04-29 15:57 51.89763 4.62201 9441 ft 307 kts 233°
2026-04-29 15:57 51.88588 4.59377 10246 ft 307 kts 234°
2026-04-29 15:57 51.87287 4.56591 10719 ft 316 kts 220°
2026-04-29 15:58 51.85344 4.54836 10881 ft 329 kts 192°
2026-04-29 15:58 51.83070 4.53879 11057 ft 349 kts 191°
2026-04-29 15:58 51.80626 4.52914 11215 ft 370 kts 190°
2026-04-29 15:58 51.78085 4.51914 11586 ft 382 kts 191°
2026-04-29 15:59 51.75476 4.50870 12083 ft 389 kts 191°
2026-04-29 15:59 51.72836 4.49799 12691 ft 394 kts 191°
2026-04-29 15:59 51.70176 4.48711 13408 ft 394 kts 191°
2026-04-29 15:59 51.67509 4.47616 14002 ft 399 kts 192°
2026-04-29 16:00 51.64795 4.46500 14481 ft 405 kts 192°
2026-04-29 16:00 51.62053 4.45373 14952 ft 410 kts 191°
2026-04-29 16:00 51.59278 4.44233 15601 ft 411 kts 192°
2026-04-29 16:00 51.56511 4.43098 16213 ft 412 kts 192°
2026-04-29 16:01 51.53718 4.41954 16694 ft 418 kts 192°
2026-04-29 16:01 51.50885 4.40795 17177 ft 422 kts 191°
2026-04-29 16:01 51.48019 4.39625 17736 ft 425 kts 192°
2026-04-29 16:01 51.45158 4.38458 18347 ft 425 kts 192°
2026-04-29 16:02 51.42275 4.37283 18815 ft 429 kts 192°
2026-04-29 16:02 51.39395 4.35954 19217 ft 435 kts 199°
2026-04-29 16:02 51.36633 4.33924 19701 ft 438 kts 205°
2026-04-29 16:02 51.33913 4.31714 20201 ft 439 kts 205°
2026-04-29 16:03 51.31165 4.29552 20627 ft 442 kts 204°
2026-04-29 16:03 51.28377 4.27412 21047 ft 445 kts 203°
2026-04-29 16:03 51.25573 4.25281 21528 ft 446 kts 203°
2026-04-29 16:03 51.22761 4.23149 21936 ft 450 kts 203°
2026-04-29 16:04 51.19922 4.20997 22302 ft 453 kts 203°
2026-04-29 16:04 51.17067 4.18836 22747 ft 455 kts 203°
2026-04-29 16:04 51.14149 4.16896 23144 ft 455 kts 198°
2026-04-29 16:04 51.11151 4.15242 23517 ft 458 kts 196°
2026-04-29 16:05 51.08115 4.13662 23906 ft 459 kts 195°
2026-04-29 16:05 51.05074 4.12084 24245 ft 461 kts 195°
2026-04-29 16:05 51.02022 4.10470 24574 ft 463 kts 196°
2026-04-29 16:05 50.98965 4.08824 24912 ft 465 kts 196°
2026-04-29 16:06 50.95902 4.07157 25226 ft 466 kts 196°
2026-04-29 16:06 50.92831 4.05481 25539 ft 468 kts 196°
2026-04-29 16:06 50.89744 4.03802 25837 ft 470 kts 196°
2026-04-29 16:06 50.86652 4.02079 26126 ft 473 kts 198°
2026-04-29 16:07 50.83576 4.00175 26413 ft 475 kts 199°
2026-04-29 16:07 50.81543 3.98857 26603 ft 477 kts 199°
2026-04-29 16:07 50.77441 3.96157 27001 ft 479 kts 200°
2026-04-29 16:07 50.74372 3.94147 27290 ft 480 kts 199°
2026-04-29 16:08 50.71267 3.92138 27547 ft 482 kts 199°
2026-04-29 16:08 50.68161 3.90147 27804 ft 483 kts 199°
2026-04-29 16:08 50.65035 3.88156 28072 ft 485 kts 199°
2026-04-29 16:08 50.61911 3.86168 28410 ft 484 kts 199°
2026-04-29 16:09 50.58793 3.84186 28838 ft 482 kts 199°
2026-04-29 16:09 50.55702 3.82199 29256 ft 480 kts 200°
2026-04-29 16:09 50.52635 3.80128 29627 ft 480 kts 200°
2026-04-29 16:09 50.49590 3.78025 29966 ft 479 kts 201°
2026-04-29 16:10 50.46530 3.75906 30314 ft 478 kts 200°
2026-04-29 16:10 50.43483 3.73810 30607 ft 477 kts 200°
2026-04-29 16:10 50.40447 3.71737 30889 ft 477 kts 200°